Weather History for Kake, AK

Change the Weather History Date:

Thursday, January 24, 2013

  Actual Average Record
Temperature  
Mean Temperature 40 °F -  
Max Temperature 44 °F 33 °F 44 °F (2013)
Min Temperature 37 °F 27 °F 14 °F (1997)
Degree Days  
Heating Degree Days 24    
Moisture  
Dew Point 33 °F    
Average Humidity 77    
Maximum Humidity 93    
Minimum Humidity 57    
Precipitation  
Precipitation 0.01 in - - ()
Sea Level Pressure  
Sea Level Pressure 29.58 in    
Wind  
Wind Speed 8 mph (ESE)    
Max Wind Speed 14 mph    
Max Gust Speed 21 mph    
Visibility 10 miles    
Events      
Averages and records for this station are not official NWS values.
T = Trace of Precipitation, MM = Missing Value Source: NWS Daily Summary

Daily Weather History Graph

Daily Weather History Graph

Search for Another Location

Airport:

Trip Planner

Search our weather history database for the weather conditions in past years. The results will help you decide how hot, cold, wet, or windy it might be!

Date:

Astronomy

Jan. 24, 2013 Rise Set
Actual Time 8:08 AM AKST 4:07 PM AKST
Civil Twilight 7:24 AM AKST 4:51 PM AKST
Nautical Twilight 6:37 AM AKST 5:39 PM AKST
Astronomical Twilight 5:52 AM AKST 6:24 PM AKST
Moon 2:09 PM AKST (1/24) 6:19 AM AKST (1/24)
Length of Visible Light 9h 27m
Length of Day
7h 59m
Waxing Gibbous, 95% of the Moon is Illuminated
Jan 24
Waxing Gibbous
Jan 26
Full
Feb 3
Last Quarter
Feb 9
New
Feb 17
First Quarter

Hourly Weather History & Observations

Time (AKST) Temp. Windchill Dew Point Humidity Pressure Visibility Wind Dir Wind Speed Gust Speed Precip Events Conditions
12:16 AM 37.4 °F 30.8 °F 35.6 °F 93% 29.77 in 10.0 mi SE 9.2 mph - N/A   Overcast
12:36 AM 37.4 °F 31.4 °F 35.6 °F 93% 29.77 in 10.0 mi SE 8.1 mph - N/A   Overcast
12:56 AM 37.4 °F 32.1 °F 35.6 °F 93% 29.77 in 10.0 mi ESE 6.9 mph - N/A   Overcast
1:16 AM 37.4 °F 32.8 °F 35.6 °F 93% 29.78 in 10.0 mi ESE 5.8 mph - N/A   Overcast
1:36 AM 37.4 °F 32.8 °F 33.8 °F 87% 29.78 in 10.0 mi ESE 5.8 mph - N/A   Overcast
1:56 AM 37.4 °F 32.8 °F 35.6 °F 93% 29.78 in 10.0 mi ESE 5.8 mph - N/A   Overcast
2:16 AM 37.4 °F 31.4 °F 35.6 °F 93% 29.78 in 10.0 mi ESE 8.1 mph - N/A   Overcast
2:36 AM 37.4 °F 32.1 °F 35.6 °F 93% 29.78 in 10.0 mi ESE 6.9 mph - N/A   Overcast
3:16 AM 37.4 °F 32.1 °F 33.8 °F 87% 29.78 in 10.0 mi ESE 6.9 mph - N/A   Overcast
3:36 AM 37.4 °F 32.1 °F 33.8 °F 87% 29.77 in 10.0 mi ESE 6.9 mph - N/A   Overcast
3:56 AM 37.4 °F 32.1 °F 33.8 °F 87% 29.77 in 10.0 mi ESE 6.9 mph - N/A   Overcast
4:16 AM 37.4 °F 32.1 °F 33.8 °F 87% 29.77 in 10.0 mi East 6.9 mph - N/A   Overcast
4:36 AM 37.4 °F 32.1 °F 33.8 °F 87% 29.77 in 10.0 mi East 6.9 mph - 0.01 in   Overcast
4:56 AM 37.4 °F 32.1 °F 33.8 °F 87% 29.76 in 10.0 mi East 6.9 mph - 0.01 in   Overcast
5:16 AM 37.4 °F 32.1 °F 33.8 °F 87% 29.76 in 10.0 mi East 6.9 mph - N/A   Overcast
5:36 AM 37.4 °F 31.4 °F 33.8 °F 87% 29.76 in 10.0 mi East 8.1 mph - N/A   Overcast
5:56 AM 37.4 °F 30.8 °F 33.8 °F 87% 29.75 in 10.0 mi East 9.2 mph - N/A   Overcast
6:16 AM 37.4 °F 31.4 °F 33.8 °F 87% 29.74 in 10.0 mi East 8.1 mph - N/A   Overcast
6:36 AM 37.4 °F 31.4 °F 33.8 °F 87% 29.74 in 10.0 mi East 8.1 mph - N/A   Overcast
6:56 AM 37.4 °F 32.8 °F 33.8 °F 87% 29.74 in 10.0 mi East 5.8 mph - N/A   Overcast
7:16 AM 37.4 °F 30.8 °F 33.8 °F 87% 29.73 in 10.0 mi East 9.2 mph - N/A   Overcast
7:36 AM 37.4 °F 32.1 °F 33.8 °F 87% 29.73 in 10.0 mi East 6.9 mph - N/A   Overcast
7:56 AM 37.4 °F 32.1 °F 33.8 °F 87% 29.72 in 10.0 mi East 6.9 mph - N/A   Overcast
8:36 AM 37.4 °F 32.1 °F 33.8 °F 87% 29.72 in 10.0 mi ESE 6.9 mph - N/A   Overcast
8:56 AM 37.4 °F 30.8 °F 33.8 °F 87% 29.72 in 10.0 mi ESE 9.2 mph - N/A   Overcast
9:16 AM 39.2 °F 32.5 °F 33.8 °F 81% 29.71 in 10.0 mi East 10.4 mph - N/A   Overcast
9:36 AM 39.2 °F 33.0 °F 33.8 °F 81% 29.70 in 10.0 mi East 9.2 mph - N/A   Mostly Cloudy
9:56 AM 39.2 °F 33.0 °F 33.8 °F 81% 29.70 in 10.0 mi East 9.2 mph - N/A   Mostly Cloudy
10:16 AM 39.2 °F 32.5 °F 33.8 °F 81% 29.69 in 10.0 mi East 10.4 mph - N/A   Overcast
10:36 AM 39.2 °F 33.0 °F 35.6 °F 87% 29.68 in 10.0 mi East 9.2 mph - N/A   Overcast
10:56 AM 39.2 °F 33.0 °F 33.8 °F 81% 29.68 in 10.0 mi ESE 9.2 mph - N/A   Overcast
11:16 AM 39.2 °F 34.2 °F 33.8 °F 81% 29.67 in 10.0 mi East 6.9 mph - N/A   Overcast
11:36 AM 39.2 °F 35.0 °F 33.8 °F 81% 29.66 in 10.0 mi ESE 5.8 mph - N/A   Overcast
11:56 AM 39.2 °F 33.6 °F 33.8 °F 81% 29.65 in 10.0 mi ESE 8.1 mph - N/A   Overcast
12:16 PM 39.2 °F 33.6 °F 33.8 °F 81% 29.64 in 10.0 mi East 8.1 mph - N/A   Overcast
12:36 PM 41.0 °F 35.8 °F 33.8 °F 76% 29.62 in 10.0 mi East 8.1 mph - N/A   Overcast
12:56 PM 41.0 °F 35.8 °F 33.8 °F 76% 29.61 in 10.0 mi East 8.1 mph - N/A   Overcast
1:16 PM 41.0 °F 35.2 °F 33.8 °F 76% 29.59 in 10.0 mi East 9.2 mph - N/A   Overcast
1:36 PM 41.0 °F 35.8 °F 33.8 °F 76% 29.58 in 10.0 mi East 8.1 mph - N/A   Overcast
1:56 PM 41.0 °F 36.4 °F 33.8 °F 76% 29.57 in 10.0 mi East 6.9 mph - N/A   Overcast
2:16 PM 41.0 °F 35.8 °F 33.8 °F 76% 29.56 in 10.0 mi ESE 8.1 mph - N/A   Overcast
2:36 PM 41.0 °F 37.1 °F 33.8 °F 76% 29.55 in 10.0 mi ESE 5.8 mph - N/A   Overcast
2:56 PM 41.0 °F 39.0 °F 33.8 °F 76% 29.53 in 10.0 mi East 3.5 mph - N/A   Overcast
3:16 PM 41.0 °F 39.0 °F 33.8 °F 76% 29.52 in 10.0 mi ESE 3.5 mph - N/A   Overcast
3:36 PM 41.0 °F 39.0 °F 33.8 °F 76% 29.50 in 10.0 mi East 3.5 mph - N/A   Overcast
3:56 PM 42.8 °F 38.0 °F 33.8 °F 70% 29.49 in 10.0 mi East 8.1 mph - N/A   Overcast
4:16 PM 42.8 °F 38.6 °F 32.0 °F 66% 29.47 in 10.0 mi East 6.9 mph - N/A   Overcast
4:36 PM 42.8 °F 38.0 °F 32.0 °F 66% 29.46 in 10.0 mi East 8.1 mph - N/A   Overcast
4:56 PM 42.8 °F 39.3 °F 32.0 °F 66% 29.45 in 10.0 mi East 5.8 mph - N/A   Overcast
5:16 PM 42.8 °F 38.0 °F 32.0 °F 66% 29.44 in 10.0 mi East 8.1 mph - N/A   Overcast
5:36 PM 42.8 °F 38.6 °F 32.0 °F 66% 29.43 in 10.0 mi East 6.9 mph - N/A   Overcast
5:56 PM 42.8 °F 38.0 °F 32.0 °F 66% 29.42 in 10.0 mi East 8.1 mph - N/A   Overcast
6:16 PM 42.8 °F 38.6 °F 30.2 °F 61% 29.41 in 10.0 mi East 6.9 mph - N/A   Overcast
6:36 PM 42.8 °F 37.0 °F 30.2 °F 61% 29.40 in 10.0 mi East 10.4 mph - N/A   Overcast
6:56 PM 42.8 °F 38.6 °F 30.2 °F 61% 29.39 in 10.0 mi East 6.9 mph - N/A   Overcast
7:16 PM 42.8 °F 38.0 °F 30.2 °F 61% 29.38 in 10.0 mi East 8.1 mph - N/A   Overcast
7:36 PM 42.8 °F 36.6 °F 32.0 °F 66% 29.38 in 10.0 mi ESE 11.5 mph 18.4 mph N/A   Overcast
7:56 PM 42.8 °F 38.0 °F 32.0 °F 66% 29.37 in 10.0 mi East 8.1 mph - N/A   Overcast
8:16 PM 41.0 °F 35.2 °F 32.0 °F 70% 29.36 in 10.0 mi East 9.2 mph - N/A   Overcast
8:36 PM 41.0 °F 33.5 °F 32.0 °F 70% 29.36 in 10.0 mi East 13.8 mph 18.4 mph N/A   Overcast
8:56 PM 41.0 °F 35.8 °F 33.8 °F 76% 29.34 in 10.0 mi East 8.1 mph 16.1 mph N/A   Overcast
9:16 PM 42.8 °F 37.0 °F 32.0 °F 66% 29.33 in 10.0 mi East 10.4 mph - N/A   Overcast
9:36 PM 42.8 °F 38.0 °F 32.0 °F 66% 29.33 in 10.0 mi ESE 8.1 mph - N/A   Overcast
9:56 PM 42.8 °F 37.0 °F 30.2 °F 61% 29.33 in 10.0 mi East 10.4 mph - N/A   Overcast
10:16 PM 42.8 °F 37.0 °F 30.2 °F 61% 29.31 in 10.0 mi East 10.4 mph - N/A   Overcast
10:36 PM 42.8 °F 37.0 °F 30.2 °F 61% 29.31 in 10.0 mi East 10.4 mph - N/A   Overcast
10:56 PM 44.6 °F 40.7 °F 30.2 °F 57% 29.32 in 10.0 mi ESE 6.9 mph 18.4 mph N/A   Overcast
11:16 PM 44.6 °F 39.7 °F 30.2 °F 57% 29.32 in 10.0 mi East 9.2 mph 20.7 mph N/A   Overcast
11:36 PM 42.8 °F 36.6 °F 30.2 °F 61% 29.31 in 10.0 mi ESE 11.5 mph 20.7 mph N/A   Overcast
11:56 PM 42.8 °F 37.5 °F 30.2 °F 61% 29.31 in 10.0 mi East 9.2 mph 17.3 mph N/A   Overcast